Change the Weather History Date:

Friday, August 8, 2014

  Actual Average Record
Temperature  
Mean Temperature 74 °F 74 °F  
Max Temperature 89 °F 87 °F 100 °F (2012)
Min Temperature 58 °F 62 °F 54 °F (1988)
Degree Days  
Heating Degree Days 0    
Month to date heating degree days 0  
Since 1 July heating degree days 0  
Cooling Degree Days 9    
Month to date cooling degree days 65  
Year to date cooling degree days 745  
Growing Degree Days 23 (Base 50)    
Moisture  
Dew Point 40 °F    
Average Humidity 31    
Maximum Humidity 53    
Minimum Humidity 17    
Precipitation  
Precipitation 0.00 in 0.09 in 0.68 in (1994)
Month to date precipitation 0.36 0.71  
Year to date precipitation 3.16 7.75  
Sea Level Pressure  
Sea Level Pressure 29.90 in    
Wind  
Wind Speed 6 mph (SW)    
Max Wind Speed 20 mph    
Max Gust Speed 25 mph    
Visibility 10 miles    
Events      
T = Trace of Precipitation, MM = Missing Value Source: NWS Daily Summary

Daily Weather History Graph

Daily Weather History Graph

Search for Another Location

Airport or City:

Trip Planner

Search our weather history database for the weather conditions in past years. The results will help you decide how hot, cold, wet, or windy it might be!

Date:

Astronomy

Aug. 08, 2014 Rise Set
Actual Time 5:45 AM MST 7:24 PM MST
Civil Twilight 5:17 AM MST 7:52 PM MST
Nautical Twilight 4:45 AM MST 8:24 PM MST
Astronomical Twilight 4:10 AM MST 8:59 PM MST
Moon 5:39 PM MST (8/8) 3:23 AM MST (8/8)
Length of Visible Light 14h 34m
Length of Day
13h 39m
Waxing Gibbous, 94% of the Moon is Illuminated
Aug 8
Waxing Gibbous
Aug 10
Full
Aug 17
Last Quarter
Aug 25
New
Sep 2
First Quarter

Hourly Weather History & Observations

Time (MST) Temp. Dew Point Humidity Pressure Visibility Wind Dir Wind Speed Gust Speed Precip Events Conditions
12:53 AM 64.9 °F 39.0 °F 39% 29.91 in 10.0 mi SW 4.6 mph - N/A   Clear
1:53 AM 60.1 °F 43.0 °F 53% 29.91 in 10.0 mi SSW 5.8 mph - N/A   Clear
2:53 AM 62.1 °F 41.0 °F 46% 29.90 in 10.0 mi Calm Calm - N/A   Clear
3:53 AM 62.1 °F 41.0 °F 46% 29.90 in 10.0 mi SSW 8.1 mph - N/A   Clear
4:53 AM 59.0 °F 42.1 °F 53% 29.92 in 10.0 mi SW 3.5 mph - N/A   Clear
5:53 AM 59.0 °F 43.0 °F 55% 29.94 in 10.0 mi SSW 3.5 mph - N/A   Clear
6:53 AM 64.0 °F 44.1 °F 48% 29.94 in 10.0 mi SSW 4.6 mph - N/A   Clear
7:53 AM 71.1 °F 41.0 °F 34% 29.94 in 10.0 mi Calm Calm - N/A   Clear
8:53 AM 77.0 °F 39.9 °F 26% 29.94 in 10.0 mi North 4.6 mph - N/A   Partly Cloudy
9:53 AM 81.0 °F 37.9 °F 21% 29.94 in 10.0 mi Variable 3.5 mph - N/A   Partly Cloudy
10:53 AM 82.9 °F 39.9 °F 22% 29.94 in 10.0 mi Calm Calm - N/A   Partly Cloudy
11:53 AM 82.9 °F 39.9 °F 22% 29.92 in 10.0 mi South 4.6 mph - N/A   Scattered Clouds
12:53 PM 87.1 °F 39.0 °F 18% 29.91 in 10.0 mi WSW 13.8 mph 20.7 mph N/A   Mostly Cloudy
1:53 PM 87.1 °F 41.0 °F 20% 29.91 in 10.0 mi WSW 11.5 mph 17.3 mph N/A   Mostly Cloudy
2:53 PM 87.1 °F 43.0 °F 21% 29.88 in 10.0 mi WSW 9.2 mph 19.6 mph N/A   Mostly Cloudy
3:53 PM 86.0 °F 43.0 °F 22% 29.88 in 10.0 mi West 10.4 mph - N/A   Scattered Clouds
4:53 PM 87.1 °F 39.9 °F 19% 29.86 in 10.0 mi West 9.2 mph 19.6 mph N/A   Scattered Clouds
5:53 PM 86.0 °F 37.0 °F 18% 29.86 in 10.0 mi SW 12.7 mph - N/A   Partly Cloudy
6:53 PM 84.0 °F 35.1 °F 17% 29.85 in 10.0 mi West 8.1 mph - N/A   Partly Cloudy
7:53 PM 80.1 °F 35.1 °F 20% 29.86 in 10.0 mi WSW 9.2 mph - N/A   Clear
8:53 PM 73.0 °F 39.0 °F 29% 29.89 in 10.0 mi SSW 5.8 mph - N/A   Clear
9:53 PM 71.1 °F 37.9 °F 30% 29.90 in 10.0 mi South 6.9 mph - N/A   Clear
10:53 PM 71.1 °F 37.9 °F 30% 29.89 in 10.0 mi South 8.1 mph - N/A   Clear
11:53 PM 66.9 °F 37.0 °F 33% 29.90 in 10.0 mi South 6.9 mph - N/A   Clear